ANA183 PHNL-RJAA

Flight info

Callsign ANA183
Flight time 7h 52m
Altitude 38000
Route KEOLA3 LILIA DCT DOGIF DCT 24N170W 26N180E 28N170E 30N160E 33N150E MORAY OTR15 POVAL Y813 LUBLA
Aircraft A388/J-SADE2E3FGHIJ3J4J5M1RWXY/LB1D1

Departure

Time 2026-05-07 23:20
Airport Daniel K. Inouye International Airport (PHNL)

Arrival

Time 2026-05-08 07:12
Airport Narita International Airport (RJAA)
Time Latitude Longitude Altitude Speed Heading
2026-05-07 22:57 21.32894 -157.92670 29 ft 0 kts 49°
2026-05-07 23:05 21.32892 -157.92672 29 ft 3 kts 49°
2026-05-07 23:05 21.32874 -157.92693 27 ft 4 kts 41°
2026-05-07 23:05 21.32852 -157.92709 27 ft 4 kts 16°
2026-05-07 23:05 21.32828 -157.92712 28 ft 4 kts 357°
2026-05-07 23:06 21.32802 -157.92707 28 ft 4 kts 334°
2026-05-07 23:06 21.32781 -157.92691 28 ft 4 kts 299°
2026-05-07 23:06 21.32773 -157.92664 28 ft 4 kts 272°
2026-05-07 23:06 21.32774 -157.92635 26 ft 4 kts 266°
2026-05-07 23:07 21.32775 -157.92627 28 ft 1 kts 269°
2026-05-07 23:09 21.32774 -157.92639 29 ft 3 kts 269°
2026-05-07 23:10 21.32774 -157.92675 29 ft 6 kts 269°
2026-05-07 23:10 21.32768 -157.92728 29 ft 8 kts 254°
2026-05-07 23:10 21.32747 -157.92797 29 ft 11 kts 255°
2026-05-07 23:10 21.32743 -157.92887 29 ft 13 kts 269°
2026-05-07 23:11 21.32742 -157.92992 29 ft 15 kts 269°
2026-05-07 23:11 21.32741 -157.93108 29 ft 17 kts 269°
2026-05-07 23:11 21.32740 -157.93237 29 ft 18 kts 270°
2026-05-07 23:11 21.32743 -157.93374 29 ft 19 kts 271°
2026-05-07 23:12 21.32744 -157.93470 29 ft 3 kts 270°
2026-05-07 23:12 21.32744 -157.93503 29 ft 6 kts 270°
2026-05-07 23:12 21.32744 -157.93555 29 ft 8 kts 270°
2026-05-07 23:12 21.32744 -157.93626 29 ft 11 kts 270°
2026-05-07 23:13 21.32745 -157.93715 29 ft 13 kts 270°
2026-05-07 23:13 21.32745 -157.93819 29 ft 15 kts 270°
2026-05-07 23:13 21.32743 -157.93935 29 ft 16 kts 268°
2026-05-07 23:13 21.32723 -157.94055 29 ft 16 kts 230°
2026-05-07 23:14 21.32627 -157.94130 29 ft 18 kts 208°
2026-05-07 23:14 21.32509 -157.94199 29 ft 20 kts 208°
2026-05-07 23:14 21.32393 -157.94269 30 ft 19 kts 210°
2026-05-07 23:14 21.32274 -157.94341 30 ft 21 kts 209°
2026-05-07 23:15 21.32142 -157.94418 30 ft 22 kts 208°
2026-05-07 23:15 21.32002 -157.94503 29 ft 24 kts 210°
2026-05-07 23:15 21.31852 -157.94594 30 ft 25 kts 209°
2026-05-07 23:15 21.31690 -157.94659 30 ft 25 kts 183°
2026-05-07 23:16 21.31528 -157.94647 29 ft 23 kts 172°
2026-05-07 23:16 21.31371 -157.94625 29 ft 23 kts 172°
2026-05-07 23:16 21.31211 -157.94602 29 ft 23 kts 173°
2026-05-07 23:16 21.31059 -157.94582 29 ft 20 kts 173°
2026-05-07 23:17 21.30917 -157.94571 30 ft 21 kts 180°
2026-05-07 23:17 21.30838 -157.94573 29 ft 3 kts 181°
2026-05-07 23:17 21.30800 -157.94573 29 ft 7 kts 179°
2026-05-07 23:17 21.30784 -157.94573 29 ft 3 kts 178°
2026-05-07 23:18 21.30751 -157.94571 29 ft 7 kts 178°
2026-05-07 23:18 21.30702 -157.94560 29 ft 7 kts 137°
2026-05-07 23:18 21.30683 -157.94524 30 ft 3 kts 91°
2026-05-07 23:18 21.30682 -157.94501 31 ft 21 kts 90°
2026-05-07 23:19 21.30682 -157.94044 33 ft 101 kts 89°
2026-05-07 23:19 21.30680 -157.93057 26 ft 158 kts 89°
2026-05-07 23:19 21.30659 -157.91780 254 ft 179 kts 90°
2026-05-07 23:19 21.30607 -157.90400 488 ft 190 kts 88°
2026-05-07 23:20 21.30468 -157.88992 1023 ft 189 kts 102°
2026-05-07 23:20 21.29965 -157.87690 1649 ft 192 kts 114°
2026-05-07 23:20 21.29123 -157.86553 2160 ft 201 kts 131°
2026-05-07 23:20 21.27946 -157.85666 2590 ft 213 kts 148°
2026-05-07 23:21 21.26529 -157.85140 3051 ft 220 kts 166°
2026-05-07 23:21 21.24989 -157.85044 3534 ft 223 kts 184°
2026-05-07 23:21 21.23472 -157.85397 4043 ft 224 kts 200°
2026-05-07 23:21 21.22098 -157.86174 4540 ft 225 kts 216°
2026-05-07 23:22 21.20966 -157.87348 4939 ft 230 kts 236°
2026-05-07 23:22 21.20413 -157.89006 5066 ft 249 kts 268°
2026-05-07 23:22 21.20542 -157.90922 5291 ft 269 kts 280°
2026-05-07 23:22 21.20906 -157.92914 5910 ft 274 kts 282°
2026-05-07 23:23 21.21299 -157.94915 6652 ft 275 kts 281°
2026-05-07 23:23 21.21669 -157.96941 7313 ft 279 kts 280°
2026-05-07 23:23 21.22012 -157.98965 7971 ft 281 kts 279°
2026-05-07 23:23 21.22348 -158.01044 8651 ft 282 kts 278°
2026-05-07 23:24 21.22676 -158.03132 9258 ft 287 kts 278°
2026-05-07 23:24 21.23007 -158.05241 9944 ft 289 kts 277°
2026-05-07 23:24 21.23337 -158.07371 10452 ft 291 kts 278°
2026-05-07 23:24 21.23672 -158.09525 10998 ft 294 kts 277°
2026-05-07 23:25 21.24009 -158.11682 11542 ft 297 kts 277°
2026-05-07 23:25 21.24357 -158.13889 12063 ft 301 kts 277°
2026-05-07 23:25 21.24707 -158.16144 12377 ft 312 kts 277°
2026-05-07 23:25 21.25069 -158.18477 12677 ft 323 kts 277°
2026-05-07 23:26 21.25442 -158.20888 12972 ft 333 kts 278°
2026-05-07 23:26 21.25830 -158.23374 13285 ft 343 kts 278°
2026-05-07 23:26 21.26230 -158.25931 13594 ft 352 kts 278°
2026-05-07 23:26 21.26639 -158.28555 13902 ft 358 kts 278°
2026-05-07 23:27 21.27458 -158.33818 14440 ft 362 kts 278°
2026-05-07 23:27 21.27872 -158.36485 14709 ft 363 kts 278°
2026-05-07 23:27 21.28286 -158.39161 14995 ft 364 kts 278°
2026-05-07 23:28 21.28702 -158.41850 15271 ft 367 kts 278°
2026-05-07 23:28 21.29120 -158.44555 15551 ft 368 kts 278°
2026-05-07 23:28 21.29543 -158.47264 15825 ft 369 kts 280°
2026-05-07 23:28 21.30203 -158.49935 16100 ft 372 kts 288°
2026-05-07 23:29 21.31195 -158.52509 16401 ft 375 kts 292°
2026-05-07 23:29 21.32247 -158.55068 16692 ft 376 kts 292°
2026-05-07 23:29 21.33292 -158.57655 16998 ft 378 kts 292°
2026-05-07 23:29 21.34336 -158.60254 17293 ft 381 kts 292°
2026-05-07 23:30 21.35387 -158.62868 17597 ft 382 kts 292°
2026-05-07 23:30 21.36441 -158.65490 17902 ft 383 kts 292°
2026-05-07 23:30 21.37500 -158.68122 18213 ft 384 kts 292°
2026-05-07 23:30 21.38561 -158.70763 18502 ft 388 kts 292°
2026-05-07 23:31 21.39633 -158.73430 18768 ft 389 kts 292°
2026-05-07 23:31 21.40703 -158.76092 19046 ft 390 kts 292°
2026-05-07 23:31 21.41781 -158.78777 19313 ft 392 kts 292°
2026-05-07 23:31 21.42860 -158.81466 19591 ft 393 kts 292°
2026-05-07 23:32 21.43944 -158.84169 19866 ft 395 kts 292°
2026-05-07 23:32 21.45031 -158.86879 20155 ft 395 kts 292°
2026-05-07 23:32 21.46119 -158.89597 20436 ft 397 kts 292°
2026-05-07 23:32 21.47199 -158.92294 20711 ft 400 kts 292°
2026-05-07 23:33 21.48300 -158.95046 21014 ft 402 kts 292°
2026-05-07 23:33 21.49405 -158.97809 21299 ft 402 kts 292°
2026-05-07 23:33 21.50511 -159.00578 21600 ft 404 kts 292°
2026-05-07 23:33 21.51623 -159.03360 21897 ft 405 kts 292°
2026-05-07 23:34 21.52736 -159.06148 22196 ft 407 kts 292°
2026-05-07 23:34 21.53852 -159.08945 22491 ft 408 kts 292°
2026-05-07 23:34 21.54972 -159.11753 22795 ft 411 kts 292°
2026-05-07 23:34 21.56100 -159.14584 23129 ft 413 kts 292°
2026-05-07 23:35 21.57235 -159.17433 23440 ft 416 kts 292°
2026-05-07 23:35 21.58373 -159.20293 23747 ft 417 kts 292°
2026-05-07 23:35 21.59512 -159.23155 24011 ft 417 kts 292°
2026-05-07 23:35 21.60652 -159.26022 24277 ft 418 kts 292°
2026-05-07 23:36 21.61796 -159.28901 24542 ft 420 kts 292°
2026-05-07 23:36 21.62946 -159.31798 24810 ft 422 kts 292°
2026-05-07 23:36 21.64100 -159.34706 25092 ft 423 kts 292°
2026-05-07 23:36 21.65258 -159.37625 25369 ft 424 kts 292°
2026-05-07 23:37 21.66413 -159.40538 25658 ft 423 kts 292°
2026-05-07 23:37 21.67564 -159.43442 25934 ft 423 kts 292°
2026-05-07 23:37 21.68716 -159.46352 26218 ft 422 kts 292°
2026-05-07 23:37 21.69851 -159.49219 26499 ft 422 kts 292°
2026-05-07 23:38 21.71000 -159.52127 26784 ft 424 kts 292°
2026-05-07 23:38 21.72152 -159.55048 27081 ft 426 kts 292°
2026-05-07 23:38 21.73318 -159.57999 27380 ft 430 kts 292°
2026-05-07 23:38 21.74492 -159.60970 27686 ft 433 kts 292°
2026-05-07 23:39 21.75673 -159.63963 27983 ft 436 kts 292°
2026-05-07 23:39 21.76861 -159.66976 28286 ft 438 kts 292°
2026-05-07 23:39 21.78053 -159.69999 28594 ft 439 kts 292°
2026-05-07 23:39 21.79245 -159.73028 28910 ft 441 kts 292°
2026-05-07 23:40 21.80445 -159.76075 29224 ft 443 kts 292°
2026-05-07 23:40 21.81648 -159.79135 29547 ft 444 kts 292°
2026-05-07 23:40 21.82854 -159.82202 29873 ft 447 kts 292°
2026-05-07 23:40 21.84071 -159.85302 30212 ft 450 kts 292°
2026-05-07 23:41 21.85293 -159.88414 30477 ft 451 kts 292°
2026-05-07 23:41 21.86515 -159.91529 30745 ft 453 kts 292°
2026-05-07 23:41 21.87739 -159.94653 31037 ft 454 kts 292°
2026-05-07 23:41 21.88552 -159.96728 31227 ft 454 kts 292°
2026-05-07 23:42 21.90180 -160.00885 31607 ft 456 kts 291°
2026-05-07 23:42 21.91413 -160.04036 31902 ft 457 kts 291°
2026-05-07 23:42 21.92647 -160.07192 32209 ft 457 kts 291°
2026-05-07 23:42 21.93884 -160.10358 32496 ft 459 kts 291°
2026-05-07 23:43 21.94705 -160.12461 32694 ft 459 kts 291°
2026-05-07 23:43 21.95946 -160.15641 33009 ft 460 kts 291°
2026-05-07 23:43 21.97188 -160.18826 33311 ft 461 kts 291°
2026-05-07 23:43 21.98432 -160.22016 33628 ft 462 kts 291°
2026-05-07 23:44 21.99677 -160.25213 33941 ft 463 kts 291°
2026-05-07 23:44 22.00926 -160.28424 34239 ft 464 kts 291°
2026-05-07 23:44 22.02176 -160.31636 34514 ft 465 kts 291°
2026-05-07 23:44 22.03425 -160.34850 34790 ft 464 kts 291°
2026-05-07 23:45 22.04671 -160.38058 35079 ft 462 kts 291°
2026-05-07 23:45 22.05895 -160.41209 35356 ft 460 kts 291°
2026-05-07 23:45 22.07127 -160.44386 35632 ft 458 kts 291°
2026-05-07 23:45 22.08350 -160.47539 35918 ft 455 kts 291°
2026-05-07 23:46 22.09567 -160.50680 36205 ft 453 kts 291°
2026-05-07 23:46 22.10776 -160.53804 36502 ft 450 kts 291°
2026-05-07 23:46 22.11975 -160.56904 36799 ft 446 kts 291°
2026-05-07 23:46 22.13167 -160.59986 37113 ft 444 kts 291°
2026-05-07 23:47 22.14351 -160.63051 37406 ft 441 kts 291°
2026-05-07 23:47 22.15527 -160.66097 37715 ft 439 kts 291°
2026-05-07 23:47 22.16698 -160.69131 38026 ft 436 kts 291°
2026-05-07 23:47 22.17865 -160.72159 38129 ft 438 kts 291°
2026-05-07 23:48 22.20208 -160.78241 38130 ft 439 kts 291°
2026-05-07 23:48 22.22554 -160.84337 38130 ft 439 kts 291°
2026-05-07 23:49 22.24894 -160.90426 38129 ft 438 kts 291°
2026-05-07 23:49 22.27211 -160.96463 38129 ft 438 kts 291°
2026-05-07 23:50 22.29546 -161.02556 38096 ft 441 kts 291°
2026-05-07 23:50 22.31894 -161.08691 38112 ft 443 kts 291°
2026-05-07 23:51 22.34249 -161.14853 38128 ft 444 kts 291°
2026-05-07 23:51 22.36609 -161.21035 38144 ft 446 kts 291°
2026-05-07 23:52 22.38976 -161.27243 38155 ft 447 kts 291°
2026-05-07 23:52 22.41342 -161.33457 38163 ft 447 kts 291°
2026-05-07 23:53 22.43707 -161.39678 38162 ft 447 kts 291°
2026-05-07 23:53 22.46069 -161.45897 38157 ft 447 kts 291°
2026-05-07 23:54 22.48430 -161.52120 38152 ft 446 kts 291°
2026-05-07 23:54 22.50759 -161.58285 38149 ft 444 kts 290°
2026-05-07 23:55 22.52868 -161.64557 38139 ft 443 kts 289°
2026-05-07 23:55 22.54997 -161.70805 38135 ft 442 kts 289°
2026-05-07 23:56 22.57119 -161.77056 38130 ft 442 kts 289°
2026-05-07 23:56 22.59231 -161.83309 38128 ft 442 kts 289°
2026-05-07 23:57 22.61336 -161.89553 38131 ft 442 kts 289°
2026-05-07 23:57 22.63437 -161.95796 38146 ft 441 kts 289°
2026-05-07 23:58 22.65537 -162.02043 38142 ft 441 kts 289°
2026-05-07 23:58 22.67635 -162.08292 38141 ft 441 kts 289°
2026-05-07 23:59 22.69726 -162.14531 38140 ft 441 kts 289°
2026-05-07 23:59 22.71818 -162.20782 38139 ft 441 kts 289°
2026-05-08 00:00 22.73903 -162.27022 38171 ft 441 kts 289°
2026-05-08 00:00 22.75996 -162.33294 38125 ft 443 kts 289°
2026-05-08 00:01 22.78093 -162.39587 38137 ft 445 kts 289°
2026-05-08 00:01 22.80183 -162.45869 38144 ft 446 kts 289°
2026-05-08 00:02 22.82290 -162.52213 38155 ft 447 kts 289°
2026-05-08 00:02 22.84397 -162.58562 38162 ft 448 kts 289°
2026-05-08 00:03 22.86502 -162.64917 38169 ft 448 kts 289°
2026-05-08 00:03 22.88603 -162.71272 38166 ft 447 kts 289°
2026-05-08 00:04 22.90684 -162.77574 38156 ft 446 kts 289°
2026-05-08 00:04 22.92777 -162.83920 38156 ft 446 kts 289°
2026-05-08 00:05 22.94860 -162.90247 38149 ft 445 kts 289°
2026-05-08 00:05 22.96938 -162.96570 38144 ft 444 kts 289°
2026-05-08 00:06 22.99011 -163.02887 38145 ft 443 kts 288°
2026-05-08 00:06 23.01066 -163.09157 38141 ft 443 kts 288°
2026-05-08 00:07 23.03128 -163.15457 38137 ft 443 kts 288°
2026-05-08 00:07 23.05187 -163.21758 38134 ft 443 kts 288°
2026-05-08 00:08 23.07247 -163.28073 38142 ft 443 kts 288°
2026-05-08 00:08 23.09302 -163.34381 38142 ft 443 kts 288°
2026-05-08 00:09 23.11359 -163.40705 38149 ft 444 kts 288°
2026-05-08 00:09 23.13401 -163.46995 38153 ft 444 kts 288°
2026-05-08 00:10 23.15454 -163.53327 38154 ft 444 kts 288°
2026-05-08 00:10 23.17506 -163.59663 38156 ft 444 kts 288°
2026-05-08 00:11 23.19556 -163.66006 38154 ft 444 kts 288°
2026-05-08 00:11 23.21605 -163.72353 38139 ft 445 kts 288°
2026-05-08 00:12 23.23642 -163.78676 38144 ft 446 kts 288°
2026-05-08 00:12 23.25563 -163.85101 38152 ft 446 kts 283°
2026-05-08 00:13 23.26707 -163.91730 38155 ft 446 kts 278°
2026-05-08 00:13 23.27632 -163.98411 38163 ft 447 kts 278°
2026-05-08 00:14 23.28576 -164.05084 38161 ft 447 kts 278°
2026-05-08 00:14 23.29509 -164.11726 38161 ft 447 kts 278°
2026-05-08 00:15 23.30441 -164.18407 38160 ft 446 kts 278°
2026-05-08 00:15 23.31368 -164.25081 38159 ft 446 kts 278°
2026-05-08 00:16 23.32293 -164.31770 38155 ft 446 kts 278°
2026-05-08 00:16 23.33213 -164.38443 38154 ft 446 kts 278°
2026-05-08 00:17 23.34129 -164.45113 38150 ft 446 kts 278°
2026-05-08 00:17 23.35042 -164.51784 38146 ft 445 kts 278°
2026-05-08 00:18 23.35947 -164.58414 38151 ft 445 kts 278°
2026-05-08 00:18 23.36854 -164.65083 38155 ft 446 kts 278°
2026-05-08 00:19 23.37758 -164.71754 38155 ft 446 kts 278°
2026-05-08 00:19 23.38660 -164.78426 38156 ft 446 kts 278°
2026-05-08 00:20 23.39560 -164.85105 38157 ft 446 kts 278°
2026-05-08 00:20 23.40457 -164.91792 38156 ft 446 kts 278°
2026-05-08 00:21 23.41352 -164.98477 38156 ft 446 kts 278°
2026-05-08 00:21 23.42237 -165.05112 38155 ft 446 kts 278°
2026-05-08 00:22 23.43125 -165.11793 38151 ft 446 kts 278°
2026-05-08 00:22 23.44011 -165.18478 38154 ft 446 kts 278°
2026-05-08 00:23 23.44894 -165.25166 38160 ft 446 kts 278°
2026-05-08 00:23 23.45774 -165.31859 38161 ft 446 kts 278°
2026-05-08 00:24 23.46651 -165.38542 38158 ft 446 kts 278°
2026-05-08 00:24 23.47519 -165.45187 38159 ft 446 kts 278°
2026-05-08 00:25 23.48391 -165.51876 38158 ft 446 kts 278°
2026-05-08 00:25 23.49259 -165.58564 38164 ft 445 kts 278°
2026-05-08 00:26 23.50124 -165.65246 38156 ft 445 kts 278°
2026-05-08 00:26 23.50986 -165.71935 38155 ft 445 kts 278°
2026-05-08 00:27 23.51845 -165.78624 38161 ft 445 kts 278°
2026-05-08 00:27 23.52702 -165.85310 38158 ft 445 kts 277°
2026-05-08 00:28 23.53549 -165.91952 38155 ft 445 kts 277°
2026-05-08 00:28 23.54400 -165.98646 38156 ft 446 kts 277°
2026-05-08 00:29 23.55249 -166.05339 38157 ft 446 kts 277°
2026-05-08 00:29 23.56094 -166.12036 38158 ft 446 kts 277°
2026-05-08 00:30 23.56937 -166.18729 38162 ft 446 kts 277°
2026-05-08 00:30 23.57636 -166.24303 38160 ft 446 kts 277°
2026-05-08 00:31 23.58608 -166.32084 38160 ft 445 kts 277°
2026-05-08 00:31 23.59441 -166.38773 38159 ft 445 kts 277°
2026-05-08 00:32 23.60137 -166.44385 38160 ft 445 kts 277°
2026-05-08 00:32 23.60960 -166.51038 38161 ft 445 kts 277°
2026-05-08 00:33 23.61784 -166.57720 38160 ft 445 kts 277°
2026-05-08 00:33 23.62606 -166.64417 38160 ft 444 kts 277°
2026-05-08 00:34 23.63423 -166.71093 38159 ft 444 kts 277°
2026-05-08 00:34 23.64238 -166.77780 38159 ft 444 kts 277°
2026-05-08 00:35 23.65050 -166.84463 38159 ft 444 kts 277°
2026-05-08 00:35 23.65853 -166.91102 38158 ft 444 kts 277°
2026-05-08 00:36 23.66660 -166.97789 38162 ft 445 kts 277°
2026-05-08 00:36 23.67463 -167.04478 38162 ft 445 kts 277°
2026-05-08 00:37 23.68265 -167.11176 38162 ft 445 kts 277°
2026-05-08 00:38 23.69460 -167.21211 38163 ft 445 kts 277°
2026-05-08 00:38 23.70255 -167.27910 38164 ft 445 kts 277°
2026-05-08 00:39 23.71046 -167.34604 38166 ft 445 kts 276°
2026-05-08 00:39 23.71833 -167.41292 38165 ft 445 kts 276°
2026-05-08 00:40 23.72613 -167.47947 38163 ft 444 kts 276°
2026-05-08 00:40 23.73396 -167.54644 38161 ft 444 kts 276°
2026-05-08 00:41 23.74174 -167.61337 38169 ft 444 kts 276°
2026-05-08 00:41 23.74949 -167.68022 38169 ft 444 kts 276°
2026-05-08 00:42 23.75722 -167.74713 38168 ft 444 kts 276°
2026-05-08 00:42 23.76491 -167.81400 38167 ft 444 kts 276°
2026-05-08 00:43 23.77257 -167.88085 38166 ft 444 kts 276°
2026-05-08 00:43 23.78016 -167.94731 38166 ft 444 kts 276°
2026-05-08 00:44 23.78777 -168.01421 38166 ft 444 kts 276°
2026-05-08 00:44 23.79535 -168.08116 38169 ft 444 kts 276°
2026-05-08 00:45 23.80289 -168.14805 38169 ft 444 kts 276°
2026-05-08 00:45 23.81042 -168.21504 38170 ft 444 kts 276°
2026-05-08 00:46 23.81791 -168.28194 38172 ft 444 kts 276°
2026-05-08 00:46 23.82537 -168.34885 38172 ft 444 kts 276°
2026-05-08 00:47 23.83275 -168.41532 38174 ft 444 kts 276°
2026-05-08 00:47 23.84015 -168.48224 38170 ft 444 kts 276°
2026-05-08 00:48 23.84753 -168.54921 38171 ft 444 kts 276°
2026-05-08 00:48 23.85487 -168.61615 38171 ft 444 kts 276°
2026-05-08 00:49 23.86220 -168.68324 38172 ft 446 kts 276°
2026-05-08 00:49 23.86963 -168.75159 38169 ft 460 kts 276°
2026-05-08 00:50 23.87718 -168.82126 38167 ft 459 kts 276°
2026-05-08 00:50 23.88467 -168.89058 38168 ft 460 kts 276°
2026-05-08 00:51 23.89209 -168.95970 38168 ft 460 kts 276°
2026-05-08 00:51 23.89953 -169.02921 38168 ft 460 kts 276°
2026-05-08 00:52 23.90693 -169.09869 38167 ft 460 kts 275°
2026-05-08 00:52 23.91431 -169.16825 38171 ft 460 kts 275°
2026-05-08 00:53 23.92164 -169.23774 38173 ft 460 kts 275°
2026-05-08 00:53 23.92895 -169.30725 38170 ft 460 kts 275°
2026-05-08 00:54 23.93623 -169.37677 38168 ft 460 kts 275°
2026-05-08 00:54 23.94348 -169.44633 38172 ft 461 kts 275°
2026-05-08 00:55 23.95069 -169.51588 38172 ft 460 kts 275°
2026-05-08 00:55 23.95788 -169.58553 38170 ft 460 kts 275°
2026-05-08 00:56 23.96499 -169.65463 38168 ft 461 kts 275°
2026-05-08 00:56 23.97211 -169.72418 38173 ft 460 kts 275°
2026-05-08 00:57 23.97922 -169.79383 38175 ft 460 kts 275°
2026-05-08 00:57 23.98630 -169.86326 38173 ft 460 kts 275°
2026-05-08 00:58 23.99335 -169.93279 38171 ft 460 kts 275°
2026-05-08 00:58 24.00106 -170.00222 38173 ft 461 kts 279°
2026-05-08 00:59 24.01646 -170.07040 38178 ft 462 kts 282°
2026-05-08 00:59 24.03254 -170.13834 38175 ft 462 kts 282°
2026-05-08 01:00 24.04859 -170.20638 38177 ft 462 kts 282°
2026-05-08 01:00 24.06462 -170.27449 38179 ft 462 kts 282°
2026-05-08 01:01 24.08053 -170.34221 38201 ft 462 kts 282°
2026-05-08 01:01 24.09663 -170.41091 38168 ft 466 kts 282°
2026-05-08 01:02 24.11272 -170.47965 38165 ft 466 kts 282°
2026-05-08 01:02 24.12879 -170.54848 38195 ft 467 kts 282°
2026-05-08 01:03 24.14484 -170.61745 38193 ft 468 kts 282°
2026-05-08 01:03 24.16085 -170.68645 38175 ft 468 kts 282°
2026-05-08 01:04 24.17682 -170.75548 38173 ft 467 kts 282°
2026-05-08 01:04 24.19275 -170.82444 38177 ft 467 kts 282°
2026-05-08 01:05 24.20856 -170.89304 38180 ft 467 kts 282°
2026-05-08 01:05 24.22445 -170.96211 38194 ft 467 kts 282°
2026-05-08 01:06 24.24027 -171.03109 38191 ft 467 kts 282°
2026-05-08 01:06 24.25608 -171.10012 38181 ft 467 kts 282°
2026-05-08 01:07 24.27184 -171.16914 38173 ft 467 kts 282°
2026-05-08 01:07 24.28759 -171.23823 38182 ft 467 kts 282°
2026-05-08 01:08 24.30332 -171.30739 38178 ft 469 kts 282°
2026-05-08 01:08 24.31905 -171.37674 38184 ft 469 kts 282°
2026-05-08 01:09 24.33476 -171.44611 38182 ft 468 kts 282°
2026-05-08 01:09 24.35042 -171.51546 38188 ft 469 kts 282°
2026-05-08 01:10 24.36605 -171.58480 38191 ft 468 kts 281°
2026-05-08 01:10 24.38156 -171.65378 38189 ft 468 kts 281°
2026-05-08 01:11 24.39715 -171.72326 38194 ft 469 kts 281°
2026-05-08 01:11 24.41272 -171.79280 38187 ft 469 kts 281°
2026-05-08 01:12 24.42824 -171.86231 38197 ft 469 kts 281°
2026-05-08 01:12 24.44374 -171.93184 38196 ft 469 kts 281°
2026-05-08 01:13 24.45918 -172.00133 38199 ft 469 kts 281°
2026-05-08 01:13 24.47460 -172.07084 38199 ft 469 kts 281°
2026-05-08 01:14 24.48998 -172.14036 38197 ft 469 kts 281°
2026-05-08 01:14 24.50535 -172.20998 38197 ft 472 kts 281°
2026-05-08 01:15 24.52080 -172.28014 38189 ft 473 kts 281°
2026-05-08 01:15 24.53615 -172.34995 38189 ft 473 kts 281°
2026-05-08 01:16 24.55156 -172.42027 38184 ft 474 kts 281°
2026-05-08 01:16 24.56696 -172.49066 38190 ft 474 kts 281°
2026-05-08 01:17 24.58233 -172.56109 38199 ft 474 kts 281°
2026-05-08 01:17 24.59766 -172.63151 38192 ft 474 kts 281°
2026-05-08 01:18 24.61287 -172.70155 38195 ft 474 kts 281°
2026-05-08 01:18 24.62813 -172.77202 38192 ft 474 kts 281°
2026-05-08 01:19 24.64338 -172.84258 38193 ft 475 kts 281°
2026-05-08 01:19 24.65861 -172.91321 38196 ft 475 kts 281°
2026-05-08 01:20 24.67382 -172.98392 38193 ft 475 kts 281°
2026-05-08 01:20 24.68641 -173.04258 38198 ft 474 kts 281°
2026-05-08 01:21 24.70400 -173.12474 38191 ft 474 kts 281°
2026-05-08 01:21 24.71666 -173.18405 38193 ft 476 kts 281°
2026-05-08 01:22 24.73168 -173.25450 38194 ft 476 kts 281°
2026-05-08 01:22 24.74675 -173.32543 38198 ft 476 kts 281°
2026-05-08 01:23 24.76179 -173.39635 38201 ft 476 kts 281°
2026-05-08 01:23 24.77679 -173.46723 38204 ft 476 kts 281°
2026-05-08 01:24 24.79174 -173.53811 38207 ft 476 kts 281°
2026-05-08 01:24 24.80670 -173.60919 38206 ft 477 kts 281°
2026-05-08 01:25 24.82162 -173.68022 38206 ft 477 kts 281°
2026-05-08 01:25 24.83653 -173.75143 38204 ft 477 kts 281°
2026-05-08 01:26 24.85130 -173.82211 38202 ft 476 kts 281°
2026-05-08 01:26 24.86611 -173.89319 38202 ft 476 kts 281°
2026-05-08 01:27 24.88092 -173.96446 38209 ft 478 kts 281°
2026-05-08 01:27 24.89571 -174.03578 38206 ft 477 kts 281°
2026-05-08 01:28 24.91048 -174.10719 38211 ft 478 kts 281°
2026-05-08 01:28 24.92522 -174.17864 38207 ft 478 kts 281°
2026-05-08 01:29 24.93993 -174.25011 38207 ft 478 kts 281°
2026-05-08 01:29 24.95461 -174.32166 38205 ft 479 kts 281°
2026-05-08 01:30 24.96917 -174.39277 38209 ft 479 kts 281°
2026-05-08 01:30 24.98379 -174.46439 38208 ft 478 kts 281°
2026-05-08 01:31 24.99839 -174.53607 38219 ft 479 kts 281°
2026-05-08 01:31 25.01295 -174.60771 38211 ft 479 kts 281°
2026-05-08 01:32 25.02749 -174.67948 38208 ft 479 kts 281°
2026-05-08 01:32 25.04189 -174.75078 38212 ft 479 kts 281°
2026-05-08 01:33 25.05636 -174.82251 38207 ft 479 kts 281°
2026-05-08 01:33 25.07078 -174.89426 38208 ft 479 kts 281°
2026-05-08 01:34 25.08518 -174.96608 38211 ft 479 kts 281°
2026-05-08 01:34 25.09952 -175.03781 38210 ft 479 kts 281°
2026-05-08 01:35 25.11386 -175.10974 38211 ft 480 kts 281°
2026-05-08 01:35 25.12819 -175.18175 38211 ft 480 kts 281°
2026-05-08 01:36 25.14239 -175.25331 38214 ft 480 kts 281°
2026-05-08 01:36 25.15664 -175.32534 38211 ft 480 kts 281°
2026-05-08 01:37 25.17084 -175.39731 38211 ft 480 kts 281°
2026-05-08 01:37 25.18501 -175.46934 38210 ft 480 kts 281°
2026-05-08 01:38 25.19916 -175.54143 38211 ft 480 kts 281°
2026-05-08 01:38 25.21327 -175.61352 38213 ft 480 kts 281°
2026-05-08 01:39 25.22735 -175.68563 38214 ft 480 kts 281°
2026-05-08 01:39 25.24132 -175.75736 38214 ft 480 kts 281°
2026-05-08 01:40 25.25531 -175.82944 38214 ft 480 kts 281°
2026-05-08 01:40 25.26930 -175.90167 38216 ft 480 kts 281°
2026-05-08 01:41 25.28324 -175.97391 38217 ft 480 kts 281°
2026-05-08 01:41 25.29714 -176.04607 38217 ft 480 kts 281°
2026-05-08 01:42 25.31100 -176.11824 38214 ft 480 kts 281°
2026-05-08 01:42 25.32484 -176.19051 38212 ft 481 kts 281°
2026-05-08 01:43 25.33857 -176.26242 38214 ft 481 kts 281°
2026-05-08 01:43 25.35235 -176.33476 38214 ft 481 kts 281°
2026-05-08 01:44 25.36607 -176.40701 38217 ft 481 kts 281°
2026-05-08 01:44 25.37978 -176.47942 38217 ft 481 kts 281°
2026-05-08 01:45 25.39344 -176.55176 38219 ft 481 kts 281°
2026-05-08 01:45 25.40708 -176.62422 38220 ft 481 kts 281°
2026-05-08 01:46 25.42071 -176.69681 38219 ft 481 kts 281°
2026-05-08 01:46 25.43429 -176.76933 38219 ft 481 kts 281°
2026-05-08 01:47 25.44783 -176.84182 38216 ft 481 kts 281°
2026-05-08 01:47 25.46124 -176.91386 38217 ft 481 kts 281°
2026-05-08 01:48 25.48144 -177.02275 38219 ft 482 kts 281°
2026-05-08 01:48 25.49486 -177.09534 38222 ft 482 kts 281°
2026-05-08 01:49 25.50825 -177.16798 38221 ft 481 kts 281°
2026-05-08 01:49 25.52162 -177.24071 38222 ft 482 kts 281°
2026-05-08 01:50 25.53492 -177.31331 38222 ft 482 kts 281°
2026-05-08 01:50 25.54822 -177.38614 38223 ft 482 kts 281°
2026-05-08 01:51 25.56148 -177.45891 38221 ft 482 kts 281°
2026-05-08 01:51 25.57470 -177.53169 38223 ft 482 kts 281°
2026-05-08 01:52 25.58779 -177.60395 38225 ft 482 kts 281°
2026-05-08 01:52 25.60094 -177.67680 38225 ft 482 kts 281°
2026-05-08 01:53 25.61407 -177.74969 38224 ft 482 kts 281°
2026-05-08 01:53 25.62715 -177.82258 38232 ft 481 kts 281°
2026-05-08 01:54 25.64016 -177.89526 38227 ft 481 kts 281°
2026-05-08 01:54 25.65314 -177.96799 38228 ft 481 kts 281°
2026-05-08 01:55 25.66608 -178.04074 38224 ft 481 kts 281°
2026-05-08 01:55 25.67898 -178.11349 38225 ft 480 kts 281°
2026-05-08 01:56 25.69183 -178.18616 38225 ft 480 kts 281°
2026-05-08 01:56 25.70465 -178.25886 38224 ft 480 kts 281°
2026-05-08 01:57 25.71735 -178.33111 38228 ft 480 kts 281°
2026-05-08 01:57 25.73009 -178.40382 38227 ft 480 kts 281°
2026-05-08 01:58 25.74281 -178.47660 38222 ft 480 kts 281°
2026-05-08 01:58 25.75547 -178.54935 38224 ft 480 kts 281°
2026-05-08 01:59 25.76811 -178.62210 38230 ft 480 kts 281°
2026-05-08 01:59 25.78068 -178.69475 38230 ft 480 kts 281°
2026-05-08 02:00 25.79318 -178.76716 38232 ft 480 kts 281°
2026-05-08 02:00 25.80568 -178.83984 38232 ft 480 kts 281°
2026-05-08 02:01 25.81817 -178.91266 38229 ft 481 kts 281°
2026-05-08 02:01 25.83066 -178.98567 38230 ft 481 kts 281°
2026-05-08 02:02 25.84308 -179.05858 38231 ft 481 kts 281°
2026-05-08 02:02 25.85549 -179.13162 38230 ft 481 kts 281°
2026-05-08 02:03 25.86784 -179.20455 38230 ft 481 kts 281°
2026-05-08 02:03 25.88009 -179.27713 38232 ft 482 kts 281°
2026-05-08 02:04 25.89240 -179.35026 38233 ft 482 kts 281°
2026-05-08 02:04 25.90468 -179.42344 38234 ft 482 kts 281°
2026-05-08 02:05 25.91692 -179.49662 38234 ft 482 kts 281°
2026-05-08 02:05 25.92915 -179.56993 38234 ft 482 kts 281°
2026-05-08 02:06 25.94135 -179.64321 38232 ft 482 kts 281°
2026-05-08 02:06 25.95353 -179.71652 38239 ft 483 kts 281°
2026-05-08 02:07 25.96570 -179.79001 38230 ft 483 kts 281°
2026-05-08 02:07 25.97781 -179.86339 38232 ft 483 kts 281°
2026-05-08 02:08 25.98982 -179.93639 38232 ft 483 kts 281°
2026-05-08 02:08 26.00189 179.99007 38228 ft 484 kts 282°
2026-05-08 02:09 26.01831 179.91760 38236 ft 483 kts 286°
2026-05-08 02:09 26.03337 179.85775 38236 ft 484 kts 286°
2026-05-08 02:10 26.05092 179.78554 38234 ft 484 kts 285°
2026-05-08 02:10 26.06815 179.71316 38232 ft 484 kts 285°
2026-05-08 02:11 26.08529 179.64081 38231 ft 483 kts 285°
2026-05-08 02:11 26.10239 179.56849 38234 ft 483 kts 285°
2026-05-08 02:12 26.11946 179.49612 38236 ft 483 kts 285°
2026-05-08 02:12 26.13637 179.42426 38239 ft 483 kts 285°
2026-05-08 02:13 26.15332 179.35190 38239 ft 483 kts 285°
2026-05-08 02:13 26.17023 179.27955 38235 ft 483 kts 285°
2026-05-08 02:14 26.18713 179.20705 38238 ft 483 kts 285°
2026-05-08 02:14 26.20397 179.13463 38233 ft 483 kts 285°
2026-05-08 02:15 26.22077 179.06223 38235 ft 483 kts 285°
2026-05-08 02:15 26.23753 178.98978 38234 ft 483 kts 285°
2026-05-08 02:16 26.25425 178.91737 38233 ft 483 kts 285°
2026-05-08 02:16 26.27086 178.84521 38230 ft 479 kts 286°
2026-05-08 02:17 26.28735 178.77344 38234 ft 478 kts 286°
2026-05-08 02:17 26.30372 178.70200 38233 ft 478 kts 286°
2026-05-08 02:18 26.32016 178.63010 38232 ft 478 kts 286°
2026-05-08 02:18 26.33655 178.55821 38231 ft 478 kts 286°
2026-05-08 02:19 26.35291 178.48629 38231 ft 478 kts 285°
2026-05-08 02:19 26.36922 178.41443 38234 ft 478 kts 286°
2026-05-08 02:20 26.38550 178.34250 38235 ft 478 kts 286°
2026-05-08 02:20 26.40175 178.27053 38232 ft 478 kts 285°
2026-05-08 02:21 26.41795 178.19857 38237 ft 478 kts 285°
2026-05-08 02:21 26.43413 178.12658 38229 ft 478 kts 285°
2026-05-08 02:22 26.45026 178.05457 38228 ft 478 kts 285°
2026-05-08 02:22 26.46639 177.98242 38228 ft 478 kts 285°
2026-05-08 02:23 26.48234 177.91089 38230 ft 478 kts 285°
2026-05-08 02:23 26.49836 177.83883 38234 ft 478 kts 285°
2026-05-08 02:24 26.51436 177.76672 38232 ft 478 kts 285°
2026-05-08 02:24 26.53031 177.69462 38219 ft 477 kts 285°
2026-05-08 02:25 26.54620 177.62264 38254 ft 477 kts 285°
2026-05-08 02:25 26.56197 177.55101 38242 ft 474 kts 285°
2026-05-08 02:26 26.57769 177.47939 38238 ft 474 kts 285°
2026-05-08 02:26 26.59328 177.40824 38238 ft 474 kts 285°
2026-05-08 02:27 26.60893 177.33659 38235 ft 474 kts 285°
2026-05-08 02:27 26.62454 177.26493 38240 ft 474 kts 285°
2026-05-08 02:28 26.64011 177.19332 38234 ft 474 kts 285°
2026-05-08 02:28 26.65561 177.12180 38234 ft 474 kts 285°
2026-05-08 02:29 26.67109 177.05024 38242 ft 474 kts 285°
2026-05-08 02:29 26.68653 176.97863 38235 ft 474 kts 285°
2026-05-08 02:30 26.70192 176.90707 38245 ft 472 kts 285°
2026-05-08 02:30 26.71725 176.83564 38245 ft 472 kts 285°
2026-05-08 02:31 26.73254 176.76420 38252 ft 472 kts 285°
2026-05-08 02:31 26.74769 176.69317 38252 ft 472 kts 285°
2026-05-08 02:32 26.76292 176.62165 38240 ft 472 kts 285°
2026-05-08 02:32 26.77812 176.55007 38235 ft 472 kts 285°
2026-05-08 02:33 26.79326 176.47856 38239 ft 472 kts 285°
2026-05-08 02:33 26.80837 176.40703 38239 ft 472 kts 285°
2026-05-08 02:34 26.82345 176.33544 38252 ft 472 kts 285°
2026-05-08 02:34 26.83841 176.26420 38241 ft 469 kts 284°
2026-05-08 02:35 26.85324 176.19344 38247 ft 469 kts 284°
2026-05-08 02:35 26.86810 176.12232 38239 ft 469 kts 284°
2026-05-08 02:36 26.88295 176.05105 38244 ft 469 kts 284°
2026-05-08 02:36 26.89778 175.97974 38239 ft 469 kts 284°
2026-05-08 02:37 26.91256 175.90840 38241 ft 469 kts 284°
2026-05-08 02:37 26.92719 175.83765 38241 ft 469 kts 284°
2026-05-08 02:38 26.94190 175.76635 38255 ft 469 kts 284°
2026-05-08 02:38 26.95655 175.69506 38250 ft 469 kts 284°
2026-05-08 02:39 26.97118 175.62372 38240 ft 469 kts 284°
2026-05-08 02:39 26.98578 175.55234 38251 ft 469 kts 284°
2026-05-08 02:40 27.00034 175.48099 38253 ft 469 kts 284°
2026-05-08 02:40 27.01487 175.40955 38241 ft 470 kts 284°
2026-05-08 02:41 27.02937 175.33806 38242 ft 470 kts 284°
2026-05-08 02:41 27.04385 175.26648 38241 ft 470 kts 284°
2026-05-08 02:42 27.05829 175.19490 38255 ft 470 kts 284°
2026-05-08 02:42 27.07269 175.12333 38262 ft 471 kts 284°
2026-05-08 02:43 27.08695 175.05224 38279 ft 470 kts 284°
2026-05-08 02:43 27.10122 174.98093 38256 ft 468 kts 284°
2026-05-08 02:44 27.11545 174.90962 38253 ft 468 kts 284°
2026-05-08 02:44 27.12964 174.83827 38253 ft 468 kts 284°
2026-05-08 02:45 27.14381 174.76685 38249 ft 468 kts 284°
2026-05-08 02:45 27.15784 174.69594 38251 ft 468 kts 284°
2026-05-08 02:46 27.17195 174.62450 38258 ft 470 kts 283°
2026-05-08 02:46 27.18605 174.55278 38255 ft 470 kts 283°
2026-05-08 02:47 27.20011 174.48111 38250 ft 469 kts 283°
2026-05-08 02:47 27.21413 174.40945 38261 ft 470 kts 283°
2026-05-08 02:48 27.22810 174.33779 38251 ft 470 kts 283°
2026-05-08 02:48 27.24206 174.26604 38254 ft 471 kts 283°
2026-05-08 02:49 27.25600 174.19420 38249 ft 470 kts 283°
2026-05-08 02:49 27.26990 174.12227 38238 ft 470 kts 283°
2026-05-08 02:50 27.28376 174.05042 38250 ft 470 kts 283°
2026-05-08 02:50 27.29759 173.97851 38256 ft 471 kts 283°
2026-05-08 02:51 27.31137 173.90660 38251 ft 471 kts 283°
2026-05-08 02:51 27.32518 173.83438 38251 ft 472 kts 283°
2026-05-08 02:52 27.33893 173.76220 38266 ft 471 kts 283°
2026-05-08 02:52 27.35245 173.69102 38258 ft 468 kts 283°
2026-05-08 02:53 27.36604 173.61932 38259 ft 468 kts 283°
2026-05-08 02:53 27.37960 173.54756 38240 ft 468 kts 283°
2026-05-08 02:54 27.39314 173.47568 38248 ft 470 kts 283°
2026-05-08 02:54 27.40666 173.40368 38249 ft 470 kts 283°
2026-05-08 02:55 27.42686 173.29575 38249 ft 470 kts 283°
2026-05-08 02:56 27.44026 173.22383 38251 ft 470 kts 283°
2026-05-08 02:56 27.45139 173.16396 38253 ft 470 kts 283°
2026-05-08 02:57 27.46694 173.08008 38252 ft 471 kts 283°
2026-05-08 02:57 27.47811 173.01961 38251 ft 471 kts 283°
2026-05-08 02:58 27.49141 172.94743 38252 ft 471 kts 283°
2026-05-08 02:58 27.50461 172.87558 38252 ft 471 kts 283°
2026-05-08 02:59 27.51785 172.80330 38249 ft 471 kts 283°
2026-05-08 02:59 27.53103 172.73108 38251 ft 471 kts 283°
2026-05-08 03:00 27.54421 172.65872 38249 ft 471 kts 283°
2026-05-08 03:00 27.55730 172.58653 38251 ft 470 kts 283°
2026-05-08 03:01 27.57038 172.51425 38252 ft 471 kts 282°
2026-05-08 03:01 27.58344 172.44185 38252 ft 472 kts 283°
2026-05-08 03:02 27.59650 172.36919 38255 ft 474 kts 283°
2026-05-08 03:02 27.60947 172.29680 38249 ft 474 kts 283°
2026-05-08 03:03 27.62248 172.22399 38252 ft 474 kts 283°
2026-05-08 03:03 27.63546 172.15112 38251 ft 474 kts 283°
2026-05-08 03:04 27.64841 172.07818 38254 ft 474 kts 283°
2026-05-08 03:04 27.66132 172.00521 38256 ft 476 kts 283°
2026-05-08 03:05 27.67426 171.93187 38252 ft 477 kts 283°
2026-05-08 03:05 27.68717 171.85843 38251 ft 477 kts 283°
2026-05-08 03:06 27.70003 171.78506 38255 ft 477 kts 283°
2026-05-08 03:06 27.71278 171.71205 38260 ft 477 kts 283°
2026-05-08 03:07 27.72557 171.63859 38254 ft 478 kts 283°
2026-05-08 03:07 27.73835 171.56496 38257 ft 477 kts 283°
2026-05-08 03:08 27.75108 171.49139 38257 ft 478 kts 283°
2026-05-08 03:08 27.76376 171.41781 38260 ft 478 kts 283°
2026-05-08 03:09 27.77641 171.34418 38257 ft 478 kts 283°
2026-05-08 03:09 27.78904 171.27044 38253 ft 479 kts 283°
2026-05-08 03:10 27.80167 171.19649 38267 ft 481 kts 283°
2026-05-08 03:10 27.81431 171.12219 38262 ft 481 kts 283°
2026-05-08 03:11 27.82683 171.04834 38257 ft 481 kts 283°
2026-05-08 03:11 27.83939 170.97403 38260 ft 481 kts 283°
2026-05-08 03:12 27.85189 170.89980 38252 ft 482 kts 283°
2026-05-08 03:12 27.86442 170.82514 38263 ft 483 kts 283°
2026-05-08 03:13 27.87690 170.75051 38265 ft 483 kts 283°
2026-05-08 03:13 27.88932 170.67598 38262 ft 483 kts 283°
2026-05-08 03:14 27.90171 170.60141 38258 ft 483 kts 283°
2026-05-08 03:14 27.91407 170.52673 38253 ft 483 kts 283°
2026-05-08 03:15 27.92638 170.45211 38260 ft 483 kts 283°
2026-05-08 03:15 27.93869 170.37740 38260 ft 483 kts 283°
2026-05-08 03:16 27.95096 170.30275 38260 ft 483 kts 283°
2026-05-08 03:16 27.96319 170.22806 38260 ft 483 kts 283°
2026-05-08 03:17 27.97537 170.15338 38256 ft 482 kts 283°
2026-05-08 03:17 27.98746 170.07905 38263 ft 480 kts 283°
2026-05-08 03:18 27.99943 170.00521 38257 ft 480 kts 283°
2026-05-08 03:18 28.01474 169.93193 38260 ft 478 kts 288°
2026-05-08 03:19 28.03318 169.85953 38262 ft 478 kts 288°
2026-05-08 03:19 28.05100 169.78700 38250 ft 478 kts 288°
2026-05-08 03:20 28.06834 169.71477 38260 ft 474 kts 288°
2026-05-08 03:20 28.08561 169.64254 38260 ft 475 kts 288°
2026-05-08 03:21 28.10282 169.57033 38263 ft 475 kts 288°
2026-05-08 03:21 28.12001 169.49806 38263 ft 475 kts 288°
2026-05-08 03:22 28.13715 169.42580 38254 ft 475 kts 288°
2026-05-08 03:22 28.15418 169.35365 38265 ft 473 kts 288°
2026-05-08 03:23 28.17108 169.28193 38268 ft 474 kts 288°
2026-05-08 03:23 28.18803 169.20975 38268 ft 474 kts 288°
2026-05-08 03:24 28.20494 169.13761 38265 ft 473 kts 288°
2026-05-08 03:24 28.22180 169.06545 38266 ft 474 kts 288°
2026-05-08 03:25 28.23863 168.99325 38266 ft 473 kts 288°
2026-05-08 03:25 28.25536 168.92128 38268 ft 470 kts 288°
2026-05-08 03:26 28.27201 168.84950 38268 ft 471 kts 288°
2026-05-08 03:26 28.28854 168.77803 38267 ft 471 kts 288°
2026-05-08 03:27 28.30528 168.70550 38270 ft 473 kts 288°
2026-05-08 03:27 28.32192 168.63317 38271 ft 473 kts 288°
2026-05-08 03:28 28.33842 168.56130 38272 ft 473 kts 288°
2026-05-08 03:28 28.35500 168.48889 38271 ft 473 kts 288°
2026-05-08 03:29 28.37151 168.41657 38271 ft 474 kts 288°
2026-05-08 03:29 28.38801 168.34411 38271 ft 474 kts 288°
2026-05-08 03:30 28.41266 168.23553 38271 ft 474 kts 288°
2026-05-08 03:31 28.44541 168.09056 38268 ft 473 kts 288°
2026-05-08 03:32 28.46979 167.98218 38269 ft 473 kts 288°
2026-05-08 03:32 28.48601 167.90981 38271 ft 473 kts 288°
2026-05-08 03:33 28.50211 167.83775 38269 ft 473 kts 288°
2026-05-08 03:33 28.51827 167.76528 38271 ft 473 kts 288°
2026-05-08 03:34 28.53441 167.69271 38271 ft 473 kts 288°
2026-05-08 03:34 28.55051 167.62008 38268 ft 473 kts 288°
2026-05-08 03:35 28.56656 167.54751 38269 ft 474 kts 287°
2026-05-08 03:35 28.58262 167.47472 38271 ft 474 kts 287°
2026-05-08 03:36 28.59840 167.40293 38268 ft 474 kts 287°
2026-05-08 03:36 28.61426 167.33067 38268 ft 474 kts 287°
2026-05-08 03:37 28.63019 167.25782 38272 ft 474 kts 287°
2026-05-08 03:37 28.64608 167.18500 38265 ft 473 kts 287°
2026-05-08 03:38 28.66191 167.11223 38271 ft 473 kts 287°
2026-05-08 03:38 28.67771 167.03942 38269 ft 473 kts 287°
2026-05-08 03:39 28.69347 166.96656 38268 ft 474 kts 287°
2026-05-08 03:39 28.70919 166.89372 38268 ft 473 kts 287°
2026-05-08 03:40 28.72490 166.82069 38278 ft 474 kts 287°
2026-05-08 03:40 28.74048 166.74809 38279 ft 475 kts 287°
2026-05-08 03:41 28.75612 166.67498 38278 ft 475 kts 287°
2026-05-08 03:41 28.77172 166.60187 38273 ft 474 kts 287°
2026-05-08 03:42 28.78730 166.52866 38274 ft 475 kts 287°
2026-05-08 03:42 28.80285 166.45537 38274 ft 475 kts 287°
2026-05-08 03:43 28.81835 166.38209 38272 ft 475 kts 287°
2026-05-08 03:43 28.83379 166.30889 38274 ft 475 kts 287°
2026-05-08 03:44 28.84920 166.23561 38275 ft 473 kts 287°
2026-05-08 03:44 28.86441 166.16307 38271 ft 473 kts 287°
2026-05-08 03:45 28.87971 166.08998 38275 ft 475 kts 287°
2026-05-08 03:45 28.89502 166.01653 38272 ft 475 kts 287°
2026-05-08 03:46 28.91027 165.94317 38273 ft 475 kts 287°
2026-05-08 03:46 28.92548 165.86981 38275 ft 475 kts 287°
2026-05-08 03:47 28.94064 165.79649 38273 ft 475 kts 287°
2026-05-08 03:47 28.95583 165.72285 38277 ft 477 kts 287°
2026-05-08 03:48 28.97097 165.64916 38275 ft 476 kts 287°
2026-05-08 03:48 28.98606 165.57550 38273 ft 477 kts 287°
2026-05-08 03:49 28.99859 165.51419 38271 ft 477 kts 287°
2026-05-08 03:49 29.01361 165.44049 38270 ft 477 kts 287°
2026-05-08 03:50 29.03102 165.35476 38279 ft 474 kts 287°
2026-05-08 03:50 29.04348 165.29325 38276 ft 475 kts 287°
2026-05-08 03:51 29.05833 165.21973 38272 ft 475 kts 287°
2026-05-08 03:51 29.07315 165.14617 38273 ft 475 kts 286°
2026-05-08 03:52 29.08792 165.07263 38270 ft 475 kts 286°
2026-05-08 03:52 29.10273 164.99869 38279 ft 477 kts 286°
2026-05-08 03:53 29.11748 164.92471 38277 ft 477 kts 286°
2026-05-08 03:53 29.13211 164.85119 38275 ft 477 kts 286°
2026-05-08 03:54 29.14680 164.77712 38276 ft 477 kts 286°
2026-05-08 03:54 29.16145 164.70306 38267 ft 478 kts 286°
2026-05-08 03:55 29.17613 164.62867 38274 ft 479 kts 286°
2026-05-08 03:55 29.19073 164.55433 38290 ft 479 kts 286°
2026-05-08 03:56 29.20521 164.48040 38275 ft 478 kts 285°
2026-05-08 03:56 29.21973 164.40612 38273 ft 478 kts 285°
2026-05-08 03:57 29.23423 164.33168 38281 ft 480 kts 285°
2026-05-08 03:57 29.24872 164.25705 38286 ft 480 kts 285°
2026-05-08 03:58 29.26314 164.18244 38267 ft 480 kts 285°
2026-05-08 03:58 29.27753 164.10788 38265 ft 479 kts 285°
2026-05-08 03:59 29.29189 164.03317 38266 ft 479 kts 285°
2026-05-08 03:59 29.30622 163.95845 38276 ft 480 kts 285°
2026-05-08 04:00 29.32043 163.88408 38275 ft 480 kts 285°
2026-05-08 04:00 29.33466 163.80932 38283 ft 480 kts 284°
2026-05-08 04:01 29.34886 163.73455 38269 ft 480 kts 284°
2026-05-08 04:01 29.36302 163.65970 38278 ft 480 kts 284°
2026-05-08 04:02 29.37716 163.58480 38278 ft 481 kts 284°
2026-05-08 04:02 29.39126 163.50978 38277 ft 481 kts 284°
2026-05-08 04:03 29.40532 163.43475 38275 ft 481 kts 284°
2026-05-08 04:03 29.42631 163.32229 38273 ft 481 kts 284°
2026-05-08 04:04 29.44026 163.24727 38274 ft 481 kts 284°
2026-05-08 04:04 29.45407 163.17268 38275 ft 481 kts 284°
2026-05-08 04:05 29.46801 163.09718 38272 ft 481 kts 284°
2026-05-08 04:05 29.48174 163.02259 38266 ft 481 kts 284°
2026-05-08 04:06 29.49552 162.94749 38259 ft 481 kts 284°
2026-05-08 04:06 29.50927 162.87226 38266 ft 482 kts 283°
2026-05-08 04:07 29.52300 162.79692 38274 ft 482 kts 283°
2026-05-08 04:07 29.53667 162.72165 38285 ft 481 kts 283°
2026-05-08 04:08 29.55026 162.64655 38264 ft 480 kts 283°
2026-05-08 04:08 29.56383 162.57134 38264 ft 482 kts 283°
2026-05-08 04:09 29.57738 162.49594 38268 ft 482 kts 283°
2026-05-08 04:09 29.59081 162.42100 38273 ft 482 kts 283°
2026-05-08 04:10 29.60429 162.34549 38263 ft 482 kts 283°
2026-05-08 04:10 29.61771 162.27005 38265 ft 482 kts 283°
2026-05-08 04:11 29.63112 162.19446 38266 ft 483 kts 282°
2026-05-08 04:11 29.64447 162.11890 38265 ft 483 kts 282°
2026-05-08 04:12 29.65780 162.04315 38263 ft 483 kts 282°
2026-05-08 04:12 29.67107 161.96755 38261 ft 482 kts 282°
2026-05-08 04:13 29.68423 161.89229 38267 ft 483 kts 282°
2026-05-08 04:13 29.69742 161.81658 38268 ft 482 kts 282°
2026-05-08 04:14 29.71057 161.74084 38265 ft 482 kts 282°
2026-05-08 04:14 29.72368 161.66506 38265 ft 482 kts 282°
2026-05-08 04:15 29.73673 161.58935 38265 ft 482 kts 282°
2026-05-08 04:15 29.74977 161.51352 38263 ft 482 kts 282°
2026-05-08 04:16 29.76274 161.43774 38263 ft 482 kts 282°
2026-05-08 04:16 29.77558 161.36244 38259 ft 482 kts 282°
2026-05-08 04:17 29.78845 161.28666 38260 ft 482 kts 282°
2026-05-08 04:17 29.80130 161.21081 38255 ft 483 kts 282°
2026-05-08 04:18 29.81414 161.13472 38259 ft 484 kts 281°
2026-05-08 04:18 29.82694 161.05859 38259 ft 484 kts 281°
2026-05-08 04:19 29.83969 160.98242 38256 ft 484 kts 281°
2026-05-08 04:19 29.85239 160.90635 38254 ft 484 kts 281°
2026-05-08 04:20 29.86506 160.83014 38257 ft 485 kts 281°
2026-05-08 04:20 29.87770 160.75381 38258 ft 485 kts 281°
2026-05-08 04:21 29.89021 160.67802 38255 ft 485 kts 281°
2026-05-08 04:21 29.90278 160.60157 38254 ft 485 kts 281°
2026-05-08 04:22 29.91529 160.52516 38249 ft 485 kts 281°
2026-05-08 04:22 29.92769 160.44919 38252 ft 485 kts 281°
2026-05-08 04:23 29.94025 160.37214 38255 ft 485 kts 281°
2026-05-08 04:23 29.95269 160.29559 38256 ft 485 kts 281°
2026-05-08 04:24 29.96499 160.21960 38252 ft 485 kts 281°
2026-05-08 04:24 29.97735 160.14302 38248 ft 486 kts 281°
2026-05-08 04:25 29.98967 160.06636 38254 ft 485 kts 281°
2026-05-08 04:25 30.00378 159.99022 38252 ft 486 kts 288°
2026-05-08 04:26 30.02834 159.91771 38246 ft 486 kts 291°
2026-05-08 04:26 30.05362 159.84541 38248 ft 487 kts 291°
2026-05-08 04:27 30.07887 159.77288 38248 ft 486 kts 291°
2026-05-08 04:27 30.10388 159.70083 38249 ft 486 kts 291°
2026-05-08 04:28 30.12899 159.62834 38247 ft 486 kts 291°
2026-05-08 04:28 30.15408 159.55576 38246 ft 486 kts 291°
2026-05-08 04:29 30.17914 159.48310 38246 ft 486 kts 291°
2026-05-08 04:29 30.20412 159.41047 38247 ft 486 kts 291°
2026-05-08 04:30 30.22904 159.33779 38248 ft 486 kts 291°
2026-05-08 04:30 30.25395 159.26499 38248 ft 486 kts 291°
2026-05-08 04:31 30.27881 159.19215 38243 ft 486 kts 291°
2026-05-08 04:31 30.30349 159.11972 38245 ft 487 kts 291°
2026-05-08 04:32 30.32828 159.04680 38239 ft 487 kts 291°
2026-05-08 04:32 30.35303 158.97385 38241 ft 486 kts 291°
2026-05-08 04:33 30.37773 158.90088 38242 ft 486 kts 291°
2026-05-08 04:33 30.40238 158.82788 38239 ft 486 kts 291°
2026-05-08 04:34 30.42701 158.75480 38236 ft 486 kts 290°
2026-05-08 04:34 30.45142 158.68221 38234 ft 486 kts 290°
2026-05-08 04:35 30.47598 158.60903 38238 ft 486 kts 290°
2026-05-08 04:35 30.50046 158.53595 38238 ft 487 kts 290°
2026-05-08 04:36 30.52485 158.46297 38236 ft 484 kts 290°
2026-05-08 04:36 30.54914 158.39010 38232 ft 484 kts 290°
2026-05-08 04:37 30.57342 158.31713 38234 ft 484 kts 290°
2026-05-08 04:37 30.59766 158.24409 38237 ft 484 kts 290°
2026-05-08 04:38 30.61778 158.18339 38236 ft 485 kts 290°
2026-05-08 04:38 30.64585 158.09848 38234 ft 484 kts 290°
2026-05-08 04:39 30.66606 158.03719 38231 ft 485 kts 289°
2026-05-08 04:39 30.69014 157.96406 38235 ft 483 kts 289°
2026-05-08 04:40 30.71412 157.89103 38226 ft 484 kts 289°
2026-05-08 04:40 30.73790 157.81850 38226 ft 483 kts 289°
2026-05-08 04:41 30.76177 157.74549 38231 ft 483 kts 289°
2026-05-08 04:41 30.78559 157.67247 38229 ft 483 kts 289°
2026-05-08 04:42 30.80940 157.59936 38230 ft 483 kts 289°
2026-05-08 04:42 30.83314 157.52630 38227 ft 483 kts 289°
2026-05-08 04:43 30.85685 157.45315 38228 ft 482 kts 289°
2026-05-08 04:43 30.88043 157.38023 38231 ft 481 kts 289°
2026-05-08 04:44 30.90401 157.30715 38224 ft 481 kts 289°
2026-05-08 04:44 30.92752 157.23413 38223 ft 482 kts 289°
2026-05-08 04:45 30.95085 157.16153 38225 ft 481 kts 288°
2026-05-08 04:45 30.97423 157.08858 38224 ft 481 kts 288°
2026-05-08 04:46 30.99760 157.01552 38226 ft 481 kts 288°
2026-05-08 04:46 31.02089 156.94254 38238 ft 480 kts 288°
2026-05-08 04:47 31.04406 156.86975 38231 ft 478 kts 288°
2026-05-08 04:47 31.06715 156.79706 38225 ft 478 kts 288°
2026-05-08 04:48 31.09020 156.72433 38219 ft 478 kts 288°
2026-05-08 04:48 31.11307 156.65201 38221 ft 478 kts 288°
2026-05-08 04:49 31.13617 156.57881 38211 ft 478 kts 288°
2026-05-08 04:49 31.15890 156.50662 38205 ft 476 kts 288°
2026-05-08 04:50 31.18173 156.43395 38211 ft 475 kts 288°
2026-05-08 04:50 31.20443 156.36153 38214 ft 474 kts 288°
2026-05-08 04:51 31.22710 156.28900 38215 ft 475 kts 287°
2026-05-08 04:51 31.24969 156.21661 38211 ft 473 kts 287°
2026-05-08 04:52 31.27221 156.14426 38208 ft 473 kts 287°
2026-05-08 04:52 31.29451 156.07242 38209 ft 473 kts 287°
2026-05-08 04:53 31.31692 156.00009 38208 ft 473 kts 287°
2026-05-08 04:53 31.33929 155.92775 38210 ft 472 kts 287°
2026-05-08 04:54 31.36169 155.85511 38206 ft 476 kts 287°
2026-05-08 04:54 31.38410 155.78230 38207 ft 476 kts 287°
2026-05-08 04:55 31.40651 155.70929 38203 ft 475 kts 287°
2026-05-08 04:55 31.42885 155.63635 38203 ft 476 kts 287°
2026-05-08 04:56 31.45124 155.56309 38197 ft 480 kts 286°
2026-05-08 04:56 31.47356 155.48988 38198 ft 480 kts 286°
2026-05-08 04:57 31.49596 155.41622 38197 ft 480 kts 286°
2026-05-08 04:57 31.51831 155.34257 38196 ft 480 kts 286°
2026-05-08 04:58 31.54065 155.26878 38194 ft 480 kts 286°
2026-05-08 04:58 31.56292 155.19502 38195 ft 480 kts 286°
2026-05-08 04:59 31.58517 155.12118 38193 ft 480 kts 286°
2026-05-08 04:59 31.60738 155.04729 38192 ft 480 kts 286°
2026-05-08 05:00 31.62954 154.97340 38193 ft 481 kts 286°
2026-05-08 05:00 31.65169 154.89936 38197 ft 480 kts 285°
2026-05-08 05:01 31.67377 154.82537 38189 ft 480 kts 285°
2026-05-08 05:01 31.69568 154.75175 38190 ft 480 kts 285°
2026-05-08 05:02 31.71766 154.67773 38182 ft 480 kts 285°
2026-05-08 05:02 31.73971 154.60332 38184 ft 483 kts 285°
2026-05-08 05:03 31.76173 154.52878 38182 ft 483 kts 285°
2026-05-08 05:03 31.78374 154.45415 38196 ft 483 kts 285°
2026-05-08 05:04 31.80564 154.37968 38184 ft 482 kts 284°
2026-05-08 05:04 31.82735 154.30569 38183 ft 481 kts 284°
2026-05-08 05:05 31.84923 154.23089 38184 ft 480 kts 284°
2026-05-08 05:05 31.87080 154.15699 38184 ft 480 kts 284°
2026-05-08 05:06 31.89245 154.08266 38181 ft 480 kts 284°
2026-05-08 05:06 31.91404 154.00835 38182 ft 479 kts 284°
2026-05-08 05:07 31.93555 153.93414 38173 ft 476 kts 284°
2026-05-08 05:07 31.95682 153.86055 38176 ft 475 kts 284°
2026-05-08 05:08 31.97805 153.78692 38176 ft 475 kts 284°
2026-05-08 05:08 31.99927 153.71311 38169 ft 474 kts 284°
2026-05-08 05:09 32.02030 153.63985 38171 ft 472 kts 284°
2026-05-08 05:09 32.04133 153.56637 38170 ft 472 kts 284°
2026-05-08 05:10 32.07260 153.45679 38167 ft 470 kts 284°
2026-05-08 05:11 32.09329 153.38411 38168 ft 467 kts 284°
2026-05-08 05:11 32.11392 153.31137 38167 ft 467 kts 283°
2026-05-08 05:12 32.13452 153.23857 38168 ft 467 kts 283°
2026-05-08 05:12 32.15504 153.16589 38167 ft 467 kts 283°
2026-05-08 05:13 32.17552 153.09320 38157 ft 465 kts 283°
2026-05-08 05:13 32.19581 153.02099 38159 ft 464 kts 283°
2026-05-08 05:14 32.21591 152.94931 38158 ft 461 kts 283°
2026-05-08 05:14 32.23605 152.87722 38159 ft 462 kts 283°
2026-05-08 05:15 32.25615 152.80515 38160 ft 461 kts 283°
2026-05-08 05:15 32.27616 152.73323 38157 ft 460 kts 283°
2026-05-08 05:16 32.29611 152.66135 38155 ft 460 kts 283°
2026-05-08 05:16 32.31605 152.58930 38154 ft 460 kts 283°
2026-05-08 05:17 32.33594 152.51729 38175 ft 460 kts 283°
2026-05-08 05:17 32.35568 152.44566 38162 ft 457 kts 283°
2026-05-08 05:18 32.37520 152.37459 38154 ft 457 kts 283°
2026-05-08 05:18 32.39484 152.30290 38143 ft 457 kts 283°
2026-05-08 05:19 32.41442 152.23130 38132 ft 457 kts 283°
2026-05-08 05:19 32.43396 152.15966 38144 ft 457 kts 283°
2026-05-08 05:20 32.45333 152.08844 38132 ft 457 kts 283°
2026-05-08 05:20 32.47279 152.01673 38149 ft 457 kts 283°
2026-05-08 05:21 32.49222 151.94495 38145 ft 457 kts 283°
2026-05-08 05:21 32.51161 151.87310 38137 ft 458 kts 283°
2026-05-08 05:22 32.53098 151.80118 38139 ft 458 kts 283°
2026-05-08 05:22 32.55030 151.72928 38138 ft 458 kts 283°
2026-05-08 05:23 32.56958 151.65733 38141 ft 458 kts 283°
2026-05-08 05:23 32.58883 151.58527 38164 ft 458 kts 283°
2026-05-08 05:24 32.60790 151.51376 38138 ft 458 kts 283°
2026-05-08 05:24 32.62704 151.44176 38132 ft 458 kts 283°
2026-05-08 05:25 32.64617 151.36964 38133 ft 458 kts 283°
2026-05-08 05:25 32.66522 151.29757 38126 ft 458 kts 283°
2026-05-08 05:26 32.68428 151.22534 38128 ft 458 kts 283°
2026-05-08 05:26 32.70329 151.15312 38129 ft 458 kts 283°
2026-05-08 05:27 32.71906 151.09307 38125 ft 457 kts 283°
2026-05-08 05:27 32.73794 151.02095 38131 ft 457 kts 283°
2026-05-08 05:28 32.75682 150.94869 38127 ft 457 kts 283°
2026-05-08 05:28 32.77562 150.87649 38127 ft 457 kts 283°
2026-05-08 05:29 32.79439 150.80429 38124 ft 457 kts 282°
2026-05-08 05:29 32.81311 150.73205 38120 ft 457 kts 283°
2026-05-08 05:30 32.83177 150.65985 38118 ft 457 kts 283°
2026-05-08 05:30 32.85038 150.58765 38122 ft 457 kts 283°
2026-05-08 05:31 32.86895 150.51541 38118 ft 457 kts 283°
2026-05-08 05:31 32.88749 150.44314 38117 ft 456 kts 283°
2026-05-08 05:32 32.90584 150.37153 38116 ft 455 kts 283°
2026-05-08 05:32 32.92428 150.29942 38117 ft 455 kts 283°
2026-05-08 05:33 32.94270 150.22721 38110 ft 455 kts 283°
2026-05-08 05:33 32.96106 150.15499 38103 ft 455 kts 283°
2026-05-08 05:34 32.97938 150.08277 38114 ft 455 kts 283°
2026-05-08 05:34 32.99761 150.01074 38114 ft 455 kts 283°
2026-05-08 05:35 33.01896 149.93958 38111 ft 458 kts 289°
2026-05-08 05:35 33.04408 149.87023 38091 ft 457 kts 289°
2026-05-08 05:36 33.06868 149.80026 38118 ft 456 kts 288°
2026-05-08 05:36 33.09281 149.73007 38100 ft 457 kts 288°
2026-05-08 05:37 33.11689 149.65963 38098 ft 457 kts 288°
2026-05-08 05:37 33.14068 149.58984 38096 ft 457 kts 288°
2026-05-08 05:38 33.16458 149.51963 38094 ft 456 kts 288°
2026-05-08 05:38 33.18843 149.44939 38094 ft 456 kts 288°
2026-05-08 05:39 33.21224 149.37909 38085 ft 457 kts 288°
2026-05-08 05:39 33.23605 149.30866 38088 ft 457 kts 288°
2026-05-08 05:40 33.25979 149.23831 38089 ft 456 kts 288°
2026-05-08 05:40 33.28345 149.16799 38087 ft 457 kts 288°
2026-05-08 05:41 33.30713 149.09747 38079 ft 456 kts 288°
2026-05-08 05:41 33.33074 149.02702 38091 ft 456 kts 288°
2026-05-08 05:42 33.35411 148.95712 38080 ft 456 kts 288°
2026-05-08 05:42 33.37758 148.88676 38078 ft 455 kts 288°
2026-05-08 05:43 33.40106 148.81622 38077 ft 456 kts 288°
2026-05-08 05:43 33.42444 148.74583 38072 ft 455 kts 288°
2026-05-08 05:44 33.44775 148.67548 38072 ft 454 kts 288°
2026-05-08 05:44 33.47105 148.60502 38070 ft 455 kts 288°
2026-05-08 05:45 33.49428 148.53460 38067 ft 455 kts 288°
2026-05-08 05:45 33.51749 148.46408 38062 ft 454 kts 288°
2026-05-08 05:46 33.54058 148.39375 38061 ft 453 kts 288°
2026-05-08 05:46 33.56361 148.32346 38056 ft 453 kts 288°
2026-05-08 05:47 33.58664 148.25303 38056 ft 453 kts 288°
2026-05-08 05:47 33.60943 148.18317 38049 ft 452 kts 288°
2026-05-08 05:48 33.63234 148.11276 38048 ft 452 kts 288°
2026-05-08 05:48 33.65515 148.04252 38048 ft 452 kts 288°
2026-05-08 05:49 33.67793 147.97220 38043 ft 452 kts 288°
2026-05-08 05:49 33.70066 147.90187 38036 ft 451 kts 288°
2026-05-08 05:50 33.72334 147.83156 38038 ft 451 kts 288°
2026-05-08 05:50 33.74595 147.76126 38031 ft 451 kts 288°
2026-05-08 05:51 33.76856 147.69085 38029 ft 451 kts 288°
2026-05-08 05:51 33.79096 147.62090 38024 ft 452 kts 288°
2026-05-08 05:52 33.81349 147.55039 38027 ft 451 kts 287°
2026-05-08 05:52 33.83598 147.47987 38020 ft 451 kts 287°
2026-05-08 05:53 33.85839 147.40940 38021 ft 451 kts 287°
2026-05-08 05:53 33.88079 147.33879 38014 ft 451 kts 287°
2026-05-08 05:54 33.90302 147.26859 38014 ft 451 kts 287°
2026-05-08 05:54 33.92532 147.19798 38022 ft 451 kts 287°
2026-05-08 05:55 33.94753 147.12753 38001 ft 450 kts 287°
2026-05-08 05:55 33.96972 147.05692 38000 ft 451 kts 287°
2026-05-08 05:56 33.99193 146.98612 38002 ft 451 kts 287°
2026-05-08 05:56 34.01407 146.91536 37991 ft 451 kts 287°
2026-05-08 05:57 34.03617 146.84459 37994 ft 451 kts 286°
2026-05-08 05:57 34.05826 146.77366 37985 ft 452 kts 286°
2026-05-08 05:58 34.08020 146.70305 37987 ft 452 kts 286°
2026-05-08 05:58 34.10224 146.63194 37992 ft 452 kts 286°
2026-05-08 05:59 34.12424 146.56080 37980 ft 452 kts 286°
2026-05-08 05:59 34.14619 146.48965 38009 ft 452 kts 286°
2026-05-08 06:00 34.16802 146.41880 37970 ft 449 kts 285°
2026-05-08 06:00 34.18972 146.34807 37970 ft 449 kts 285°
2026-05-08 06:01 34.21147 146.27700 37973 ft 452 kts 286°
2026-05-08 06:01 34.23326 146.20572 37980 ft 452 kts 286°
2026-05-08 06:02 34.25502 146.13438 38004 ft 452 kts 285°
2026-05-08 06:02 34.27669 146.06329 37967 ft 451 kts 285°
2026-05-08 06:03 34.29556 145.99122 37967 ft 448 kts 279°
2026-05-08 06:03 34.30657 145.91774 37966 ft 445 kts 274°
2026-05-08 06:04 34.31570 145.84380 37959 ft 445 kts 275°
2026-05-08 06:04 34.32498 145.76946 37955 ft 447 kts 275°
2026-05-08 06:05 34.33415 145.69488 37975 ft 448 kts 274°
2026-05-08 06:05 34.34322 145.62065 37953 ft 445 kts 274°
2026-05-08 06:06 34.35221 145.54633 37947 ft 446 kts 274°
2026-05-08 06:06 34.36115 145.47211 37948 ft 451 kts 274°
2026-05-08 06:07 34.37015 145.39712 37944 ft 451 kts 274°
2026-05-08 06:07 34.37915 145.32181 37944 ft 451 kts 274°
2026-05-08 06:08 34.38808 145.24660 37931 ft 452 kts 274°
2026-05-08 06:08 34.39698 145.17127 37936 ft 451 kts 274°
2026-05-08 06:09 34.40581 145.09606 37930 ft 451 kts 274°
2026-05-08 06:09 34.41459 145.02083 37928 ft 451 kts 274°
2026-05-08 06:10 34.42325 144.94642 37931 ft 445 kts 274°
2026-05-08 06:10 34.43184 144.87200 37925 ft 446 kts 274°
2026-05-08 06:11 34.44040 144.79750 37924 ft 446 kts 274°
2026-05-08 06:11 34.44891 144.72304 37926 ft 445 kts 274°
2026-05-08 06:12 34.45734 144.64893 37915 ft 444 kts 274°
2026-05-08 06:12 34.46572 144.57476 37917 ft 444 kts 274°
2026-05-08 06:13 34.47415 144.50107 37906 ft 445 kts 276°
2026-05-08 06:13 34.48857 144.42762 37905 ft 450 kts 280°
2026-05-08 06:14 34.50426 144.35422 37903 ft 449 kts 280°
2026-05-08 06:14 34.51982 144.28077 37900 ft 449 kts 279°
2026-05-08 06:15 34.53270 144.21973 37897 ft 451 kts 279°
2026-05-08 06:15 34.54825 144.14594 37897 ft 451 kts 279°
2026-05-08 06:16 34.56373 144.07224 37893 ft 451 kts 279°
2026-05-08 06:16 34.57917 143.99850 37885 ft 451 kts 279°
2026-05-08 06:17 34.60215 143.88827 37867 ft 450 kts 279°
2026-05-08 06:17 34.61746 143.81454 37877 ft 450 kts 279°
2026-05-08 06:18 34.63273 143.74071 37873 ft 451 kts 279°
2026-05-08 06:18 34.64798 143.66680 37883 ft 451 kts 279°
2026-05-08 06:19 34.66321 143.59274 37879 ft 452 kts 279°
2026-05-08 06:19 34.67838 143.51873 37859 ft 451 kts 279°
2026-05-08 06:20 34.69348 143.44480 37863 ft 450 kts 279°
2026-05-08 06:20 34.70853 143.37087 37859 ft 450 kts 279°
2026-05-08 06:21 34.72343 143.29742 37858 ft 450 kts 279°
2026-05-08 06:21 34.73837 143.22357 37854 ft 450 kts 279°
2026-05-08 06:22 34.75326 143.14965 37857 ft 451 kts 279°
2026-05-08 06:22 34.76816 143.07555 37844 ft 451 kts 279°
2026-05-08 06:23 34.78297 143.00154 37853 ft 451 kts 279°
2026-05-08 06:23 34.79776 142.92738 37842 ft 451 kts 278°
2026-05-08 06:24 34.81244 142.85315 37838 ft 451 kts 278°
2026-05-08 06:24 34.82701 142.77899 37834 ft 451 kts 278°
2026-05-08 06:25 34.83426 142.74213 37675 ft 442 kts 278°
2026-05-08 06:25 34.84125 142.70663 37401 ft 431 kts 278°
2026-05-08 06:25 34.84814 142.67156 37113 ft 422 kts 278°
2026-05-08 06:25 34.85491 142.63683 36430 ft 421 kts 278°
2026-05-08 06:26 34.86165 142.60203 35723 ft 423 kts 278°
2026-05-08 06:26 34.86841 142.56719 34990 ft 424 kts 278°
2026-05-08 06:26 34.87521 142.53209 34234 ft 427 kts 278°
2026-05-08 06:26 34.88201 142.49701 33735 ft 423 kts 278°
2026-05-08 06:27 34.88878 142.46215 33149 ft 420 kts 278°
2026-05-08 06:27 34.89547 142.42767 32629 ft 416 kts 278°
2026-05-08 06:27 34.90208 142.39353 32069 ft 412 kts 278°
2026-05-08 06:27 34.90859 142.35978 31537 ft 408 kts 278°
2026-05-08 06:28 34.91504 142.32627 31007 ft 404 kts 277°
2026-05-08 06:28 34.92141 142.29308 30485 ft 401 kts 277°
2026-05-08 06:28 34.92772 142.26019 29959 ft 397 kts 277°
2026-05-08 06:28 34.93389 142.22790 29404 ft 394 kts 277°
2026-05-08 06:29 34.94005 142.19572 28898 ft 388 kts 277°
2026-05-08 06:29 34.94615 142.16378 28395 ft 383 kts 277°
2026-05-08 06:29 34.95215 142.13230 27894 ft 379 kts 277°
2026-05-08 06:29 34.95806 142.10121 27411 ft 374 kts 277°
2026-05-08 06:30 34.96390 142.07049 26919 ft 370 kts 277°
2026-05-08 06:30 34.96967 142.04004 26459 ft 366 kts 277°
2026-05-08 06:30 34.97538 142.00991 25979 ft 362 kts 277°
2026-05-08 06:30 34.98102 141.98016 25510 ft 359 kts 277°
2026-05-08 06:31 34.98663 141.95066 25049 ft 355 kts 278°
2026-05-08 06:31 34.99209 141.92201 24596 ft 352 kts 278°
2026-05-08 06:31 34.99773 141.89235 24139 ft 349 kts 278°
2026-05-08 06:31 35.00320 141.86354 23681 ft 347 kts 278°
2026-05-08 06:32 35.00861 141.83505 23205 ft 344 kts 278°
2026-05-08 06:32 35.01397 141.80674 22730 ft 340 kts 277°
2026-05-08 06:32 35.02052 141.77911 22304 ft 341 kts 286°
2026-05-08 06:32 35.03226 141.75376 21861 ft 348 kts 298°
2026-05-08 06:33 35.04892 141.73239 21433 ft 359 kts 311°
2026-05-08 06:33 35.07068 141.71569 20920 ft 371 kts 324°
2026-05-08 06:33 35.09390 141.70215 20438 ft 370 kts 324°
2026-05-08 06:33 35.11677 141.68859 19960 ft 368 kts 323°
2026-05-08 06:34 35.13971 141.67484 19483 ft 366 kts 323°
2026-05-08 06:34 35.16254 141.66109 19004 ft 365 kts 323°
2026-05-08 06:34 35.18528 141.64738 18527 ft 364 kts 323°
2026-05-08 06:34 35.20798 141.63369 18049 ft 363 kts 323°
2026-05-08 06:35 35.23067 141.62001 17541 ft 362 kts 323°
2026-05-08 06:35 35.25316 141.60645 17074 ft 359 kts 323°
2026-05-08 06:35 35.27549 141.59298 16583 ft 356 kts 323°
2026-05-08 06:35 35.29765 141.57960 16138 ft 353 kts 323°
2026-05-08 06:36 35.31964 141.56631 15673 ft 351 kts 324°
2026-05-08 06:36 35.34143 141.55313 15233 ft 348 kts 324°
2026-05-08 06:36 35.36284 141.54023 15080 ft 336 kts 324°
2026-05-08 06:36 35.38348 141.52784 14989 ft 324 kts 323°
2026-05-08 06:37 35.40337 141.51587 14883 ft 313 kts 323°
2026-05-08 06:37 35.42251 141.50430 14784 ft 301 kts 323°
2026-05-08 06:37 35.44098 141.49311 14700 ft 291 kts 322°
2026-05-08 06:37 35.45880 141.48230 14623 ft 280 kts 322°
2026-05-08 06:38 35.47577 141.47200 14533 ft 270 kts 322°
2026-05-08 06:38 35.49230 141.46197 14466 ft 260 kts 321°
2026-05-08 06:38 35.50836 141.45218 14270 ft 256 kts 321°
2026-05-08 06:38 35.52427 141.44241 14000 ft 255 kts 321°
2026-05-08 06:39 35.53915 141.43144 13718 ft 242 kts 306°
2026-05-08 06:39 35.54904 141.41618 13547 ft 215 kts 287°
2026-05-08 06:39 35.55490 141.40043 13435 ft 191 kts 283°
2026-05-08 06:39 35.56049 141.38590 12832 ft 187 kts 284°
2026-05-08 06:40 35.56608 141.37147 12179 ft 187 kts 284°
2026-05-08 06:40 35.57169 141.35702 11548 ft 187 kts 284°
2026-05-08 06:40 35.57728 141.34261 10938 ft 186 kts 285°
2026-05-08 06:40 35.58283 141.32829 10408 ft 185 kts 285°
2026-05-08 06:41 35.58837 141.31403 10124 ft 184 kts 285°
2026-05-08 06:41 35.59392 141.29975 9926 ft 185 kts 285°
2026-05-08 06:41 35.59936 141.28595 9842 ft 172 kts 285°
2026-05-08 06:41 35.60528 141.27326 9616 ft 177 kts 297°
2026-05-08 06:42 35.61498 141.26301 9500 ft 191 kts 315°
2026-05-08 06:42 35.62401 141.25223 9359 ft 172 kts 285°
2026-05-08 06:42 35.62790 141.23875 9259 ft 168 kts 278°
2026-05-08 06:42 35.63156 141.22515 9128 ft 167 kts 279°
2026-05-08 06:43 35.63533 141.21162 8998 ft 167 kts 279°
2026-05-08 06:43 35.63917 141.19816 8871 ft 167 kts 280°
2026-05-08 06:43 35.64304 141.18472 8760 ft 167 kts 279°
2026-05-08 06:43 35.64694 141.17126 8632 ft 167 kts 280°
2026-05-08 06:44 35.65083 141.15780 8510 ft 167 kts 280°
2026-05-08 06:44 35.65473 141.14433 8372 ft 167 kts 281°
2026-05-08 06:44 35.66066 141.13164 8249 ft 179 kts 300°
2026-05-08 06:44 35.67007 141.12138 8135 ft 185 kts 309°
2026-05-08 06:45 35.67993 141.11121 8008 ft 186 kts 308°
2026-05-08 06:45 35.69013 141.10012 7912 ft 203 kts 308°
2026-05-08 06:45 35.70086 141.08839 7799 ft 208 kts 308°
2026-05-08 06:45 35.71176 141.07664 7660 ft 208 kts 308°
2026-05-08 06:46 35.72266 141.06492 7542 ft 208 kts 308°
2026-05-08 06:46 35.73352 141.05321 7417 ft 208 kts 308°
2026-05-08 06:46 35.74436 141.04148 7294 ft 208 kts 309°
2026-05-08 06:46 35.75522 141.02971 7169 ft 208 kts 309°
2026-05-08 06:47 35.76476 141.01688 7044 ft 198 kts 294°
2026-05-08 06:47 35.77043 141.00180 6941 ft 192 kts 282°
2026-05-08 06:47 35.77515 140.98631 6824 ft 193 kts 283°
2026-05-08 06:47 35.78011 140.97100 6703 ft 192 kts 283°
2026-05-08 06:48 35.78516 140.95567 6575 ft 193 kts 283°
2026-05-08 06:48 35.79022 140.94031 6461 ft 193 kts 283°
2026-05-08 06:48 35.79525 140.92497 6333 ft 193 kts 283°
2026-05-08 06:48 35.80028 140.90961 6225 ft 193 kts 283°
2026-05-08 06:49 35.80529 140.89429 6104 ft 192 kts 284°
2026-05-08 06:49 35.81028 140.87900 6024 ft 193 kts 284°
2026-05-08 06:49 35.81528 140.86366 6028 ft 193 kts 283°
2026-05-08 06:49 35.82027 140.84837 6024 ft 192 kts 283°
2026-05-08 06:50 35.82526 140.83305 6026 ft 192 kts 283°
2026-05-08 06:50 35.83023 140.81777 6025 ft 192 kts 283°
2026-05-08 06:50 35.83511 140.80281 6025 ft 190 kts 283°
2026-05-08 06:50 35.84003 140.78768 6025 ft 190 kts 283°
2026-05-08 06:51 35.84495 140.77254 6021 ft 191 kts 283°
2026-05-08 06:51 35.84988 140.75736 6022 ft 191 kts 283°
2026-05-08 06:51 35.85481 140.74218 6022 ft 191 kts 283°
2026-05-08 06:51 35.85977 140.72685 6009 ft 193 kts 284°
2026-05-08 06:52 35.86474 140.71155 6026 ft 193 kts 283°
2026-05-08 06:52 35.86975 140.69615 6023 ft 193 kts 283°
2026-05-08 06:52 35.87472 140.68081 6017 ft 193 kts 284°
2026-05-08 06:52 35.87972 140.66537 6017 ft 194 kts 284°
2026-05-08 06:53 35.88472 140.64990 6018 ft 194 kts 284°
2026-05-08 06:53 35.88972 140.63442 6013 ft 195 kts 284°
2026-05-08 06:53 35.89475 140.61888 6016 ft 195 kts 284°
2026-05-08 06:53 35.89978 140.60336 6017 ft 195 kts 284°
2026-05-08 06:54 35.90477 140.58792 6012 ft 194 kts 284°
2026-05-08 06:54 35.90978 140.57240 6013 ft 196 kts 284°
2026-05-08 06:54 35.91474 140.55698 6005 ft 195 kts 284°
2026-05-08 06:54 35.91974 140.54154 6012 ft 194 kts 284°
2026-05-08 06:55 35.92477 140.52597 6022 ft 195 kts 284°
2026-05-08 06:55 35.92980 140.51042 6005 ft 195 kts 284°
2026-05-08 06:55 35.93478 140.49494 6008 ft 195 kts 284°
2026-05-08 06:55 35.93980 140.47932 6014 ft 195 kts 283°
2026-05-08 06:56 35.94478 140.46387 6020 ft 192 kts 283°
2026-05-08 06:56 35.94968 140.44855 6013 ft 194 kts 284°
2026-05-08 06:56 35.95466 140.43302 6007 ft 195 kts 284°
2026-05-08 06:56 35.96040 140.41786 6000 ft 201 kts 298°
2026-05-08 06:57 35.97167 140.40685 6010 ft 217 kts 327°
2026-05-08 06:57 35.98563 140.39940 5999 ft 218 kts 328°
2026-05-08 06:57 35.99938 140.39180 6009 ft 216 kts 327°
2026-05-08 06:57 36.01300 140.38405 6007 ft 215 kts 327°
2026-05-08 06:58 36.02654 140.37626 6005 ft 216 kts 327°
2026-05-08 06:58 36.04020 140.36837 6008 ft 217 kts 327°
2026-05-08 06:58 36.05359 140.36063 6006 ft 217 kts 327°
2026-05-08 06:58 36.06728 140.35271 6006 ft 217 kts 326°
2026-05-08 06:59 36.08081 140.34493 5877 ft 212 kts 327°
2026-05-08 06:59 36.09394 140.33738 5548 ft 203 kts 328°
2026-05-08 06:59 36.10667 140.33003 4940 ft 202 kts 327°
2026-05-08 06:59 36.11749 140.32028 4276 ft 183 kts 296°
2026-05-08 07:00 36.12058 140.30598 4087 ft 171 kts 263°
2026-05-08 07:00 36.11979 140.29120 4011 ft 173 kts 263°
2026-05-08 07:00 36.11958 140.27630 4014 ft 174 kts 264°
2026-05-08 07:00 36.11956 140.26130 4011 ft 174 kts 264°
2026-05-08 07:01 36.11954 140.24632 4008 ft 174 kts 264°
2026-05-08 07:01 36.11946 140.23138 4008 ft 174 kts 264°
2026-05-08 07:01 36.11936 140.21667 3999 ft 167 kts 264°
2026-05-08 07:01 36.11924 140.20246 4008 ft 164 kts 264°
2026-05-08 07:02 36.11882 140.19323 4000 ft 161 kts 255°
2026-05-08 07:02 36.11330 140.18148 4006 ft 161 kts 222°
2026-05-08 07:02 36.09917 140.17622 4012 ft 169 kts 184°
2026-05-08 07:02 36.09123 140.17675 4005 ft 168 kts 183°
2026-05-08 07:03 36.07584 140.17719 4010 ft 166 kts 184°
2026-05-08 07:03 36.06425 140.17730 4014 ft 167 kts 185°
2026-05-08 07:03 36.05639 140.17736 4003 ft 167 kts 185°
2026-05-08 07:03 36.04478 140.17748 4011 ft 166 kts 184°
2026-05-08 07:04 36.03338 140.18062 4010 ft 173 kts 165°
2026-05-08 07:04 36.02253 140.18762 4012 ft 179 kts 157°
2026-05-08 07:04 36.01221 140.19529 4001 ft 168 kts 160°
2026-05-08 07:04 36.00271 140.20240 4013 ft 152 kts 162°
2026-05-08 07:05 35.99386 140.20884 4014 ft 145 kts 162°
2026-05-08 07:05 35.98512 140.21510 4014 ft 145 kts 162°
2026-05-08 07:05 35.97641 140.22144 4014 ft 145 kts 162°
2026-05-08 07:05 35.96766 140.22781 4011 ft 146 kts 163°
2026-05-08 07:06 35.95890 140.23418 4014 ft 145 kts 163°
2026-05-08 07:06 35.95025 140.24055 3974 ft 145 kts 163°
2026-05-08 07:06 35.94159 140.24682 3818 ft 143 kts 163°
2026-05-08 07:06 35.93300 140.25301 3634 ft 144 kts 163°
2026-05-08 07:07 35.92444 140.25929 3457 ft 143 kts 162°
2026-05-08 07:07 35.91586 140.26557 3278 ft 144 kts 162°
2026-05-08 07:07 35.90726 140.27179 3097 ft 142 kts 162°
2026-05-08 07:07 35.89882 140.27801 2904 ft 140 kts 162°
2026-05-08 07:08 35.89054 140.28399 2729 ft 138 kts 163°
2026-05-08 07:08 35.88216 140.29004 2543 ft 141 kts 162°
2026-05-08 07:08 35.87371 140.29617 2352 ft 139 kts 162°
2026-05-08 07:08 35.86545 140.30221 2171 ft 138 kts 161°
2026-05-08 07:09 35.85730 140.30816 1993 ft 138 kts 160°
2026-05-08 07:09 35.84904 140.31416 1807 ft 137 kts 160°
2026-05-08 07:09 35.84084 140.32009 1646 ft 135 kts 161°
2026-05-08 07:09 35.83278 140.32597 1442 ft 132 kts 160°
2026-05-08 07:10 35.82476 140.33177 1275 ft 136 kts 158°
2026-05-08 07:10 35.81658 140.33770 1092 ft 136 kts 157°
2026-05-08 07:10 35.80837 140.34372 925 ft 141 kts 155°
2026-05-08 07:10 35.80010 140.34969 751 ft 135 kts 158°
2026-05-08 07:11 35.79195 140.35564 583 ft 138 kts 159°
2026-05-08 07:11 35.78395 140.36142 387 ft 129 kts 155°
2026-05-08 07:11 35.77592 140.36715 227 ft 135 kts 156°
2026-05-08 07:11 35.76843 140.37250 149 ft 107 kts 153°
2026-05-08 07:12 35.76397 140.37574 150 ft 62 kts 148°
2026-05-08 07:12 35.76152 140.37761 149 ft 33 kts 149°
2026-05-08 07:12 35.75971 140.37898 150 ft 28 kts 141°
2026-05-08 07:12 35.75861 140.38065 151 ft 21 kts 121°
2026-05-08 07:13 35.75818 140.38158 150 ft 11 kts 119°
2026-05-08 07:13 35.75779 140.38245 150 ft 12 kts 120°
2026-05-08 07:13 35.75727 140.38328 150 ft 10 kts 123°
2026-05-08 07:13 35.75725 140.38407 149 ft 11 kts 56°
2026-05-08 07:14 35.75762 140.38504 149 ft 12 kts 90°
2026-05-08 07:14 35.75740 140.38549 149 ft 11 kts 139°
2026-05-08 07:14 35.75742 140.38611 149 ft 10 kts 46°
2026-05-08 07:14 35.75778 140.38630 149 ft 10 kts 13°
2026-05-08 07:15 35.75816 140.38640 149 ft 0 kts 12°